Location: Sungai Bunut
(2.6333°N, 113.7333°E)
Time: 19:35:50
(UTC+00:00)

YAOGAN 6 - Pass Details

Date: 16 October 2021
Orbit: 464 x 499 km, 97.1° (Epoch: 08 December)

Event Time Altitude Azimuth Distance (km) Brightness Sun altitude
Rises 21:25:28 0° 359° (N) 2,510 6.1 -11.5°
Reaches altitude 10° 21:27:34 10° 352° (N) 1,641 5.1 -11.0°
Maximum altitude 21:30:55 41° 281° (W) 704 2.9 -10.2°
Drops below altitude 10° 21:34:19 10° 209° (SSW) 1,667 5.1 -9.3°
Sets 21:36:28 0° 202° (SSW) 2,556 6.1 -8.8°
